This demonstration page uses our WeatherBlox Daily Observations layout. Learn more.

Hourly Observations for January 21, 2020

Temp ( °F °C ) Dew Point ( °F °C ) Humidity (%) Winds ( mph kmh ) Pressure ( in mb ) Visibility ( mi km ) Precip ( " mm )
12:54 am 00:54 Clear 0 -17.8 -4 -20 83 83 SSW 3 6 30.69 1039 10 16.0934 0 0
1:54 am 01:54 Clear 0 -17.8 -5 -20.6 79 79 S 5 7 30.68 1039 10 16.0934 0 0
2:54 am 02:54 Clear 0 -17.8 -5 -20.6 79 79 S 7 11 30.67 1039 10 16.0934 0 0
3:54 am 03:54 Clear 0 -17.8 -5 -20.6 79 79 S 6 9 30.65 1038 10 16.0934 0 0
4:54 am 04:54 Clear -3 -19.4 -7 -21.7 82 82 S 7 11 30.63 1037 10 16.0934 0 0
5:54 am 05:54 Clear 1 -17.2 -4 -20 79 79 S 5 7 30.61 1037 10 16.0934 0 0
6:54 am 06:54 Clear 0 -17.8 -5 -20.6 79 79 S 5 7 30.59 1036 10 16.0934 0 0
7:54 am 07:54 Sunny 0 -17.8 -5 -20.6 79 79 SSE 6 9 30.56 1035 10 16.0934 0 0
8:54 am 08:54 Sunny 4 -15.6 0 -17.8 83 83 S 6 9 30.55 1035 10 16.0934 0 0
9:54 am 09:54 Sunny 11 -11.7 6 -14.4 81 81 S 14 22 30.52 1033 10 16.0934 0 0
10:54 am 10:54 Sunny 15 -9.4 7 -13.9 70 70 S 14 22 30.51 1033 10 16.0934 0 0
11:54 am 11:54 Sunny 18 -7.8 8 -13.3 65 65 S 14 22 30.46 1031 10 16.0934 0 0
12:54 pm 12:54 Sunny 22 -5.6 11 -11.7 63 63 S 16 26 30.39 1029 10 16.0934 0 0
1:54 pm 13:54 Sunny 23 -5 13 -10.6 65 65 SSE 15 24 30.34 1027 10 16.0934 0 0
2:54 pm 14:54 Sunny 26 -3.3 15 -9.4 63 63 S 23 37 30.27 1025 10 16.0934 0 0
3:54 pm 15:54 Sunny 27 -2.8 16 -8.9 63 63 S 17 28 30.26 1025 10 16.0934 0 0
4:54 pm 16:54 Sunny 28 -2.2 18 -7.8 66 66 S 14 22 30.22 1023 10 16.0934 0 0
5:54 pm 17:54 Clear 28 -2.2 19 -7.2 69 69 S 13 20 30.2 1023 10 16.0934 0 0
6:54 pm 18:54 Clear 29 -1.7 20 -6.7 69 69 SSE 16 26 30.17 1022 10 16.0934 0 0
7:54 pm 19:54 Cloudy 30 -1.1 21 -6.1 69 69 S 17 28 30.16 1022 10 16.0934 0 0
8:54 pm 20:54 Cloudy with Light Wintry Mix 31 -0.6 23 -5 72 72 S 15 24 30.16 1021 10 16.0934 0.001 0.001
9:11 pm 21:11 Cloudy 31 -0.6 23 -5 72 72 S 18 30 30.15 1021 10 16.0934 0.01 0.254
9:18 pm 21:18 Cloudy with Light Freezing Rain 31 -0.6 23 -5 72 72 S 15 24 30.15 1021 10 16.0934 0.01 0.254
9:54 pm 21:54 Cloudy with Light Wintry Mix 32 0 27 -2.8 82 82 S 21 33 30.12 1020 5 8.0467 0.03 0.762
10:01 pm 22:01 Cloudy with Light Freezing Rain 32 0 27 -2.8 82 82 S 20 31 30.12 1020 5 8.0467 0.01 0.254
10:54 pm 22:54 Cloudy with Light Freezing Rain 33 0.6 28 -2.2 82 82 S 20 31 30.09 1019 6 9.65604 0.05 1.27
11:16 pm 23:16 Cloudy with Light Rain 33 0.6 28 -2.2 82 82 S 22 35 30.09 1019 8 12.87472 0.01 0.254
11:24 pm 23:24 Cloudy with Light Freezing Rain 33 0.6 28 -2.2 82 82 S 21 33 30.09 1019 8 12.87472 0.01 0.254
11:38 pm 23:38 Windy with Snow Likely 33 0.6 29 -1.7 85 85 S 20 31 30.09 1019 5 8.0467 0.02 0.508
11:54 pm 23:54 Cloudy with Light Snow 33 0.6 29 -1.7 85 85 S 18 30 30.06 1018 5 8.0467 0.03 0.762

Powered by AerisWeather